Location: Piolenc
(44.1794°N, 4.7641°E)
Time: 04:43:16
(UTC+00:00)

Cosmos 1125 Rocket - Pass Details

Date: 27 January 2021
Orbit: 756 x 781 km, 74.0° (Epoch: 27 February)

Event Time Altitude Azimuth Distance (km) Brightness Sun altitude
Exits shadow 05:01:53 11° 345° (NNW) 2,274 5.7 -21.9°
Maximum altitude 05:06:59 65° 67° (ENE) 861 3.9 -21.0°
Drops below altitude 10° 05:12:15 10° 149° (SSE) 2,328 6.5 -20.0°
Sets 05:14:39 0° 152° (SSE) 3,252 7.2 -19.6°
